#timestamp,LO_Frequency,Hit,StdDev 
1457924415.2,286046996.4,N
1457924435.9,286046995.7,N
1457924455.7,286046991.8,N
1457924475.6,286046990.2,Y
1457924495.4,286046993.1,P
1457924515.2,286046990.6,N
1457924535.1,286046990.6,N
1457924536.0,286046990.6,N
1457924555.8,286046990.8,N
1457924575.6,286046991.5,N
1457924595.5,286046989.2,Y
1457924615.3,286046998.7,P
1457924635.1,286047001.1,N
1457924655.9,286046994.9,N
1457924675.7,286046995.0,N
1457924695.5,286046996.6,N
1457924715.3,286046999.6,N
1457924735.2,286046997.5,N
1457924755.0,286046997.4,N
1457924755.9,286046997.4,N
1457924775.7,286046995.4,N
1457924795.6,286046997.4,N
1457924815.4,286046995.8,N
1457924835.2,286046996.4,N
1457924855.1,286046994.7,N
1457924856.0,286046994.7,N
1457924875.8,286046994.8,N
1457924895.6,286046992.7,Y
1457924915.5,286046997.0,P
1457924935.3,286046996.6,P
1457924955.1,286046995.0,P
1457924975.9,286046994.9,Y
1457924995.7,286046998.8,P
1457925015.5,286046996.1,P
1457925035.4,286046993.6,P
1457925055.2,286046993.8,Y
1457925075.0,286046999.3,P
1457925075.9,286046999.3,N
1457925095.8,286046997.4,N
1457925115.6,286046997.9,N
1457925135.4,286046995.8,Y
1457925155.3,286046994.9,P
1457925175.1,286046993.5,P
1457925195.8,286046997.6,N
1457925215.7,286046998.9,N
1457925235.5,286046998.4,N
1457925255.3,286047000.6,N
1457925275.2,286047001.9,N
1457925295.9,286047000.7,N
1457925315.7,286047000.9,N
1457925335.5,286046998.9,N
1457925355.4,286047001.0,N
1457925375.2,286046997.5,N
1457925395.0,286046996.7,N
1457925395.9,286046996.7,N
1457925415.8,286046999.4,N
1457925435.6,286046998.0,N
1457925455.4,286046999.6,N
1457925475.3,286046995.2,N
1457925495.1,286046997.7,N
1457925515.8,286046995.6,N
1457925535.7,286046993.6,N
1457925555.5,286046990.2,Y
1457925575.3,286046991.9,P
1457925595.2,286046991.7,N
1457925615.9,286046994.6,N
1457925635.7,286046995.6,N
1457925655.6,286046996.4,N
1457925675.4,286046995.8,N
1457925695.2,286046995.7,N
1457925715.1,286046997.7,N
1457925716.0,286046997.7,N
1457925735.8,286046997.1,N
1457925755.6,286046995.1,N
1457925775.4,286046994.2,N
1457925795.3,286046994.0,Y
1457925815.1,286046996.7,P
1457925835.9,286046997.5,P
1457925855.7,286046997.2,P
1457925875.5,286046998.7,N
1457925895.3,286046998.3,N
1457925915.2,286047001.1,N
1457925935.9,286046998.9,N
1457925955.7,286046997.3,N
1457925975.6,286046997.5,N
1457925995.4,286046996.5,N
1457926015.2,286046997.0,N
1457926035.1,286046995.9,Y
1457926036.0,286046995.9,P
1457926055.8,286046997.0,P
1457926075.6,286046999.4,N
1457926095.5,286046997.7,N
1457926115.3,286046999.1,N
1457926135.1,286046996.1,Y
1457926155.9,286046998.7,P
1457926175.7,286047000.1,N
1457926195.5,286047001.7,N
1457926215.4,286047008.5,Y
1457926235.2,286047008.1,P
1457926255.0,286047007.9,N
1457926255.9,286047007.9,N
1457926275.8,286047008.3,N
1457926295.6,286047008.4,N
1457926315.4,286047007.8,N
1457926335.3,286047007.7,N
1457926355.1,286047007.9,N
1457926356.0,286047007.9,N
1457926375.8,286047008.9,Y
1457926395.7,286047000.0,P
1457926415.5,286047000.5,N
1457926435.3,286046996.8,N
1457926455.1,286046998.2,N
1457926475.9,286047002.0,N
1457926495.7,286047002.6,N
1457926515.5,286047002.3,N
1457926535.4,286047005.9,N
1457926555.2,286047004.2,N
1457926575.0,286047002.1,N
1457926575.9,286047002.1,N
1457926595.8,286047004.4,N
1457926615.6,286047002.5,N
1457926635.4,286047001.9,N
1457926655.3,286047007.2,N
1457926675.1,286047005.2,N
1457926676.0,286047005.2,N
1457926695.8,286047007.3,N
1457926715.7,286047004.3,N
1457926735.5,286047005.5,N
1457926755.3,286047007.0,N
1457926775.2,286047003.5,N
1457926795.9,286047004.8,N
1457926815.7,286047005.9,N
1457926835.5,286047004.9,N
1457926855.4,286047005.9,N
1457926875.2,286047005.2,N
1457926895.0,286047008.8,Y
1457926896.0,286047008.8,P
1457926915.8,286047002.0,N
1457926935.6,286047000.2,N
1457926955.4,286047000.8,N
1457926975.3,286046999.3,N
1457926995.1,286046997.2,N
1457927015.8,286047000.3,N
1457927035.7,286047000.6,N
1457927055.5,286047004.4,N
1457927075.3,286047003.7,N
1457927095.2,286047002.6,N
1457927115.9,286047000.1,N
1457927135.7,286047001.0,N
1457927155.6,286046998.2,N
1457927175.4,286046998.1,N
1457927195.2,286047001.0,N
1457927215.0,286047002.5,N
1457927215.9,286047002.5,N
1457927235.8,286047000.8,N
1457927255.6,286047000.2,N
1457927275.4,286046998.4,N
1457927295.3,286046996.6,N
1457927315.1,286046998.6,N
1457927335.8,286046996.3,N
1457927355.7,286046993.3,N
1457927375.5,286046995.9,N
1457927395.3,286046996.3,N
1457927415.2,286046999.5,N
1457927435.9,286047000.4,N
1457927455.7,286046999.0,N
1457927475.6,286047002.6,N
1457927495.4,286047004.0,N
1457927515.2,286047004.2,N
1457927535.0,286047007.5,N
1457927536.0,286047007.5,N
1457927555.8,286047005.4,N
1457927575.6,286047005.7,N
1457927595.4,286047004.4,N
1457927615.3,286047001.8,N
1457927635.1,286047005.6,N
1457927655.8,286047003.9,N
1457927675.7,286047001.5,N
1457927695.5,286047000.0,N
1457927715.3,286046999.7,N
1457927735.2,286046998.5,N
1457927755.9,286046996.5,N
1457927775.7,286046996.6,N
1457927795.6,286046998.8,N
1457927815.4,286046999.3,N
1457927835.2,286046999.5,N
1457927855.1,286046996.8,N
1457927856.0,286046996.8,N
1457927875.8,286046996.1,N
1457927895.6,286046995.8,N
1457927915.4,286046993.9,N
1457927935.3,286046993.8,N
1457927955.1,286046994.7,N
1457927975.8,286046992.2,N
1457927995.7,286046993.1,N
